Theta_e
313 306 302 300 293 290 288 293 294 295 297 300 302 303 303 306 306 297 325 332 337 337 339 340 342 339 337 334 331 329 328 325 325 324 324 323 323 323 323 322 322 322 324 324 324 324 324 324 323
311 306 299 294 288 285 287 290 295 297 301 302 303 303 305 307 317 320 325 336 337 337 338 337 338 337 335 332 330 328 325 324 324 324 323 322 322 321 321 320 322 322 323 324 324 324 323 323 323
306 304 294 290 286 285 287 292 296 299 300 299 298 305 305 310 318 320 329 335 335 333 333 334 337 336 333 331 329 326 324 324 324 322 322 321 320 320 319 320 322 322 323 323 323 323 322 322 322
301 296 291 286 285 290 289 294 298 299 299 300 301 304 310 316 321 324 331 332 330 329 330 334 336 334 332 330 327 324 324 324 322 321 320 319 318 318 319 320 320 320 321 321 321 321 321 321 321
296 291 286 283 285 289 290 294 297 295 296 297 300 301 307 320 325 329 329 329 326 326 327 330 334 333 330 329 326 324 323 322 320 319 317 318 318 318 318 317 318 319 319 320 320 320 319 319 319
292 289 283 281 284 289 291 293 294 293 296 297 300 305 308 321 323 325 327 326 326 324 326 330 329 331 330 328 324 323 322 320 318 316 316 317 317 316 315 317 318 319 320 320 321 320 320 319 319
290 287 282 282 285 288 290 293 290 293 296 297 301 303 310 317 321 324 324 325 324 324 324 326 327 326 326 326 324 322 320 318 315 314 313 313 314 313 314 316 318 320 320 320 319 320 318 318 319
291 288 285 284 285 287 292 293 294 294 294 299 302 303 306 316 321 323 323 322 322 321 321 321 320 319 317 316 321 321 319 315 314 314 314 314 312 312 312 312 315 318 319 319 318 318 317 317 318
291 285 283 285 285 288 292 291 295 296 294 299 311 307 313 321 320 319 318 317 318 320 319 318 316 314 313 312 314 317 317 316 314 311 314 308 303 304 306 311 314 317 317 318 318 317 316 316 315
288 283 286 288 287 286 291 290 291 292 291 294 307 315 318 320 318 316 316 315 316 316 316 317 315 313 311 313 309 306 308 307 305 304 304 304 304 306 309 309 313 315 315 317 318 319 317 311 307
288 285 288 290 291 291 291 290 291 289 289 293 298 312 315 315 316 316 316 317 317 318 318 316 315 312 310 307 305 304 304 304 303 303 303 303 304 304 305 305 306 306 309 307 309 309 310 309 308
287 290 291 293 293 291 289 291 291 289 292 295 292 315 315 315 315 316 316 316 316 316 318 316 314 312 307 305 304 303 304 303 301 302 303 302 303 303 304 305 305 305 305 306 306 307 309 309 310
290 290 293 293 292 291 292 291 290 290 293 294 295 314 314 315 316 316 317 317 317 316 316 315 312 309 306 304 303 304 304 301 301 302 302 303 303 303 304 304 305 305 306 306 306 307 308 309 311
291 291 291 292 291 291 290 288 290 291 292 292 293 307 312 313 315 315 316 317 317 317 316 314 311 308 305 303 303 303 302 301 302 301 302 304 303 303 305 304 305 305 307 306 306 307 307 311 312
291 287 288 290 290 290 291 288 289 293 293 292 291 293 309 312 314 315 317 317 319 319 317 314 311 307 305 305 305 303 302 302 301 301 304 304 305 304 304 304 305 305 308 307 306 308 308 311 311
286 285 282 287 288 290 289 283 290 290 288 291 291 290 291 305 311 314 317 318 319 319 316 314 313 307 306 306 305 303 302 301 301 301 303 305 306 306 305 305 305 307 309 307 307 307 306 306 305
283 278 280 285 288 289 286 284 290 289 289 289 290 291 291 293 297 304 313 318 319 319 317 313 310 306 306 306 304 302 301 301 301 301 302 304 306 306 305 305 305 308 307 307 308 307 305 304 304
278 279 281 280 285 286 284 285 288 290 288 290 291 290 291 291 294 295 302 316 318 318 316 313 309 307 306 304 302 301 300 300 301 301 302 304 305 306 306 306 306 309 309 307 307 306 306 305 303
282 281 280 281 285 285 284 285 287 288 288 287 289 291 291 292 293 295 298 314 317 316 315 312 308 306 305 303 301 299 298 300 300 301 303 304 305 306 306 305 305 307 309 308 307 307 305 306 305
283 281 280 284 285 284 283 283 287 287 287 290 290 290 291 292 293 294 300 314 315 314 314 311 308 306 305 304 301 301 300 300 300 301 302 304 305 306 306 305 305 306 309 308 307 306 305 305 305
285 282 282 282 284 283 281 280 283 286 287 288 289 291 291 293 293 293 303 312 314 314 312 311 308 306 305 303 302 300 300 300 299 299 301 302 305 305 305 306 305 305 310 307 306 306 306 303 305
282 287 286 285 282 277 280 275 281 285 286 287 289 286 290 289 291 293 303 310 313 314 312 311 308 306 304 304 301 301 299 298 299 299 300 302 304 304 305 307 306 305 310 308 307 308 306 305 303
286 289 287 285 282 279 278 276 279 282 283 287 290 288 287 288 290 293 303 310 313 313 311 310 307 305 304 303 303 301 299 298 299 299 300 301 302 304 305 306 306 306 310 308 309 307 307 306 305
289 287 287 284 281 272 279 279 278 282 286 287 288 289 289 287 288 291 301 307 309 311 310 308 305 305 304 302 301 300 298 297 298 298 299 299 301 302 304 306 305 306 306 309 310 310 308 306 306
285 282 273 271 269 273 279 277 282 286 288 288 289 289 289 288 288 290 296 301 306 308 307 306 305 303 302 301 300 299 298 298 299 299 299 299 299 300 302 304 304 305 308 310 310 310 308 306 305
282 283 276 272 272 276 279 277 282 288 291 289 290 290 289 288 288 290 294 300 306 306 305 305 304 301 301 301 300 298 299 300 299 299 299 299 300 301 303 304 304 306 309 310 311 307 308 305 304
282 281 285 277 271 275 278 280 285 288 289 288 289 290 290 290 290 291 293 296 302 303 303 304 302 301 301 300 299 297 298 298 299 299 299 300 301 302 303 304 304 305 309 310 310 308 310 307 303
285 287 279 276 268 270 275 277 281 285 287 288 288 289 291 292 291 292 295 298 302 302 302 302 302 301 301 300 299 297 298 299 299 298 299 300 301 302 303 304 305 306 308 310 310 308 309 308 305
281 281 281 281 278 273 270 277 285 289 290 290 288 288 289 292 294 294 296 298 300 300 301 301 300 300 300 299 297 296 297 298 299 299 299 300 300 301 302 304 305 305 306 308 309 309 309 309 306
285 283 282 278 273 276 277 277 289 290 290 290 288 289 288 291 294 296 297 299 300 300 300 300 300 299 300 298 297 296 297 298 298 298 299 299 299 300 302 303 304 305 307 309 309 307 307 308 306
Wind_Speed
7 7 2 6 5 5 4 6 3 2 2 1 3 8 9 4 2 4 3 9 15 12 9 10 15 16 17 12 11 10 10 10 9 9 8 8 8 8 7 7 7 7 7 7 7 7 7 7 8
5 4 6 3 5 2 6 5 1 3 5 6 8 4 5 2 2 7 5 10 15 11 7 10 15 17 15 12 11 11 10 9 9 9 8 8 7 7 7 8 8 8 8 8 8 8 8 8 8
2 4 4 5 3 5 4 3 5 1 1 2 4 6 4 4 1 8 10 12 11 8 7 10 14 17 14 13 12 11 10 9 9 8 8 8 7 8 8 8 8 9 9 9 9 9 9 9 8
3 5 5 4 6 6 3 6 5 5 1 4 4 7 3 2 7 8 12 13 12 7 7 12 15 15 13 13 12 11 10 10 9 8 8 8 8 8 8 8 8 9 9 9 10 10 10 10 11
5 4 2 1 5 5 4 5 7 3 4 3 4 5 2 4 9 16 13 12 13 7 7 9 14 13 13 13 12 11 10 9 9 8 8 9 9 9 9 9 9 9 10 10 10 10 10 10 10
4 4 3 3 5 6 6 6 6 3 3 2 6 5 1 2 10 9 10 10 10 11 8 9 12 11 11 12 12 11 10 9 8 8 8 9 9 9 10 10 10 10 10 10 10 10 10 9 9
6 5 5 4 5 6 2 4 3 6 6 3 8 6 2 2 8 8 8 7 7 8 8 7 8 8 11 11 10 10 10 9 8 8 7 5 6 6 9 9 10 11 10 11 12 12 12 12 11
5 5 2 4 3 5 4 2 1 3 3 0 4 7 6 7 9 10 8 7 8 7 7 7 7 6 7 6 11 10 9 8 7 7 7 6 5 6 5 6 7 9 11 11 12 12 12 11 10
3 5 3 4 2 3 6 4 6 2 2 4 4 3 2 12 13 10 7 4 5 5 6 7 7 6 6 6 5 8 8 7 6 5 6 4 3 4 5 5 6 8 9 11 11 12 9 9 8
5 4 9 2 1 2 4 4 6 3 4 2 3 5 4 10 13 14 11 10 8 7 7 8 7 7 6 5 5 4 4 3 3 3 3 3 4 3 4 6 8 7 9 11 13 15 12 8 4
5 7 5 3 1 1 4 5 5 2 3 5 5 6 5 4 7 13 11 12 13 10 8 8 8 7 7 5 4 2 2 3 2 3 3 3 3 3 3 3 3 3 6 4 6 6 5 6 4
3 6 5 3 1 1 2 3 8 3 7 6 2 12 8 9 11 12 12 11 9 9 10 9 8 8 6 5 4 4 3 3 2 2 4 3 2 3 3 3 4 4 3 5 4 3 4 5 6
4 4 5 2 5 5 3 6 7 9 12 8 2 10 13 11 11 7 7 6 7 8 9 10 10 9 6 6 4 4 4 3 3 2 3 3 3 3 2 3 3 3 3 3 4 3 4 5 4
2 3 3 4 4 4 5 4 5 8 7 10 7 11 12 13 16 9 8 10 10 8 10 10 10 9 8 6 6 5 4 5 4 2 3 3 3 3 3 3 4 3 3 3 3 3 4 4 5
2 3 4 8 5 6 5 6 10 13 5 9 8 7 10 14 11 16 17 15 14 11 12 12 10 9 9 8 6 5 5 5 3 3 3 3 3 4 2 2 3 3 3 4 4 4 4 5 5
2 3 1 4 6 6 8 10 10 6 5 9 10 9 9 13 14 16 14 15 14 12 14 11 10 10 8 7 6 4 5 4 4 3 2 3 4 4 3 2 3 4 4 3 3 3 4 4 4
2 4 5 8 7 4 5 7 7 2 3 5 7 7 8 9 11 10 12 15 14 15 15 13 11 11 9 8 5 5 6 4 4 3 3 3 3 4 3 2 3 3 3 4 3 2 3 3 4
7 5 5 5 3 2 4 14 9 9 3 11 11 8 9 10 16 13 13 14 14 15 15 14 11 11 9 6 5 4 4 3 3 3 4 3 3 4 4 3 4 4 3 4 4 3 3 2 3
4 4 3 3 3 3 7 11 11 11 10 10 14 11 10 11 10 9 12 12 14 15 16 15 14 11 10 6 5 3 3 3 1 3 5 5 4 4 4 3 3 3 3 3 4 3 4 5 4
5 3 5 5 4 3 5 12 13 12 12 19 16 14 14 7 8 7 9 13 17 17 17 16 15 13 10 7 3 3 4 2 2 2 3 4 5 4 4 3 2 3 3 4 4 4 2 2 5
8 10 4 6 3 3 4 8 9 7 8 10 12 17 12 16 11 8 10 15 15 18 18 17 16 16 12 10 5 4 4 3 2 1 1 3 5 4 4 4 2 1 2 2 4 3 5 3 3
9 11 8 6 3 5 1 8 7 8 10 8 14 10 17 11 8 8 13 14 16 16 15 16 15 15 12 12 8 11 5 6 4 4 2 3 4 4 3 4 3 1 1 3 4 3 3 2 4
6 8 11 6 4 0 3 2 9 3 8 16 15 11 11 11 10 12 15 16 15 15 15 14 15 14 13 12 11 9 6 3 3 3 6 4 3 4 4 4 3 2 2 3 5 4 5 3 3
8 7 7 5 3 2 9 9 6 7 11 7 7 7 9 10 10 9 9 11 10 12 14 13 15 13 14 13 11 11 10 7 6 5 5 4 3 3 3 4 3 2 2 2 0 3 5 4 4
6 9 3 3 2 8 2 4 9 9 13 9 10 8 9 8 8 9 15 14 12 15 15 14 15 13 13 13 11 10 9 9 10 8 6 5 4 3 4 4 3 2 2 2 2 2 4 4 3
8 10 9 9 6 3 4 10 9 14 12 5 7 8 1 4 7 9 9 12 15 16 16 16 15 13 13 12 11 8 8 6 5 7 5 4 4 4 5 5 4 4 4 3 3 2 3 3 4
8 13 6 7 3 3 6 8 9 11 13 6 9 3 6 7 8 10 9 9 12 13 14 15 15 13 14 13 10 9 7 8 7 7 5 5 4 4 5 5 5 3 3 4 3 2 1 4 4
14 12 4 3 6 5 6 6 8 3 10 8 6 8 8 5 6 6 7 9 10 12 11 12 13 15 14 12 10 9 9 7 7 6 7 7 6 6 6 5 5 5 4 4 4 3 2 4 3
6 11 3 7 6 7 2 8 10 18 13 13 10 8 8 9 7 7 5 5 6 8 10 10 11 12 11 10 9 9 8 7 7 7 6 6 6 7 6 6 5 5 5 4 4 3 4 4 5
7 10 9 8 8 2 4 10 4 9 8 5 3 7 7 6 8 7 7 8 9 10 10 10 9 10 10 9 9 9 8 7 8 7 7 7 7 6 6 6 5 5 5 5 5 4 3 4 6
Wind_Direction
332 325 83 42 54 65 267 260 285 155 78 260 98 114 125 72 125 202 344 155 136 143 150 147 128 122 115 131 123 113 102 94 90 85 78 68 61 56 48 44 35 29 22 18 13 11 4 0 352
334 351 42 81 92 76 265 258 171 245 177 139 97 90 56 103 105 122 100 142 137 143 143 134 125 120 125 132 124 113 105 100 97 91 83 74 63 54 42 33 28 23 19 14 8 6 358 352 344
344 34 83 105 136 192 227 226 164 175 168 109 88 57 114 139 82 148 140 138 126 122 124 126 124 124 134 130 124 115 110 106 98 90 81 71 60 50 41 36 31 24 17 14 12 5 356 348 338
39 13 28 98 231 254 247 214 189 144 34 59 108 71 44 275 165 139 134 129 122 127 133 122 115 125 137 132 126 121 115 107 99 86 73 61 55 53 50 42 37 31 24 19 13 4 356 348 343
36 58 54 259 253 263 270 224 178 156 166 140 124 165 67 360 108 127 132 133 130 130 117 113 123 138 140 135 129 122 114 105 93 79 69 63 58 53 51 40 39 32 22 16 11 4 358 347 338
46 92 62 242 261 273 267 213 184 121 160 174 80 102 138 100 119 137 131 133 138 133 120 118 129 138 139 135 131 125 117 104 88 74 70 64 60 55 44 35 35 33 32 25 19 8 2 355 349
116 95 213 219 260 307 262 316 136 140 151 237 153 101 146 199 137 137 129 123 123 123 117 125 133 132 123 121 124 124 117 104 87 72 68 73 61 52 47 32 31 31 26 20 12 12 8 354 351
108 99 249 244 227 265 317 339 137 74 194 359 124 168 186 204 131 122 121 125 125 131 130 127 121 123 121 126 126 125 124 110 92 61 75 78 69 58 36 14 1 22 19 24 25 18 4 5 359
95 69 218 259 214 254 342 355 344 295 72 56 9 132 274 132 124 119 120 103 124 143 137 132 137 134 131 130 138 134 130 116 87 63 61 60 44 35 22 345 350 5 12 10 9 6 9 2 346
106 141 213 238 264 288 321 12 321 31 12 83 33 8 74 129 143 146 163 166 170 167 157 158 150 152 149 145 141 142 130 117 105 86 66 61 49 34 38 14 18 7 8 6 4 1 3 350 331
174 192 201 231 248 310 322 320 312 337 271 218 186 174 172 153 158 162 176 175 178 173 166 168 162 158 159 147 150 142 124 122 97 89 83 63 52 24 31 16 1 353 4 4 5 353 4 355 352
174 225 218 229 213 256 271 297 322 232 230 146 355 175 169 179 186 183 179 176 171 169 174 168 165 164 168 148 157 155 141 142 121 111 96 84 55 32 29 17 339 17 344 9 5 6 338 5 358
219 231 230 213 275 236 223 229 229 252 256 264 244 158 193 194 198 198 191 179 167 171 169 170 160 158 164 154 151 145 143 141 152 122 101 101 87 59 37 4 344 14 350 8 8 3 360 3 329
236 164 283 290 276 276 233 256 149 261 246 257 202 197 197 198 197 187 191 197 192 178 174 167 165 159 154 153 153 148 138 142 143 137 124 102 102 79 54 16 346 2 352 356 348 356 6 319 339
181 312 337 260 228 234 159 285 231 242 270 270 258 219 213 211 190 196 200 197 192 191 174 171 162 156 153 154 145 147 149 141 146 151 129 110 94 78 72 25 347 342 340 353 360 4 359 351 341
122 58 314 288 145 243 132 264 268 257 219 253 258 246 218 219 211 206 198 196 189 177 176 168 161 161 150 147 146 145 142 141 153 149 123 101 94 80 63 26 342 345 10 333 6 9 350 348 340
316 220 206 310 190 139 165 262 255 106 38 293 280 273 233 229 228 219 199 193 184 176 170 166 158 159 150 140 138 142 142 139 157 147 127 114 86 66 79 41 343 2 2 358 353 352 25 350 344
198 212 228 227 222 141 211 260 277 279 283 279 276 255 255 230 226 209 196 189 177 171 168 162 159 154 140 127 116 108 124 128 154 159 145 128 94 72 79 49 16 357 19 0 354 6 6 351 325
160 165 193 238 204 181 222 262 267 273 295 253 264 257 240 238 246 202 183 174 165 165 162 163 155 155 143 143 142 129 169 144 165 173 147 136 113 89 89 76 31 351 38 356 346 341 21 9 351
210 200 242 290 242 169 267 259 263 256 248 252 241 247 236 235 234 202 167 167 170 166 167 163 163 156 157 154 140 143 148 167 165 172 151 147 129 113 109 100 60 1 58 2 343 18 359 0 16
216 220 208 226 330 255 309 275 261 280 246 266 245 236 235 219 215 196 177 177 171 172 169 167 162 161 159 151 126 95 79 68 101 182 177 164 136 123 114 108 120 19 48 357 334 10 28 30 6
213 191 196 190 139 238 106 281 291 272 283 256 259 220 233 218 202 187 184 179 176 176 165 163 160 162 160 154 146 165 169 163 194 167 168 155 142 134 122 118 119 111 60 35 323 17 12 72 34
220 156 186 173 176 115 246 294 270 254 266 258 258 234 223 220 201 190 187 181 176 163 165 163 159 162 160 162 162 164 157 158 139 136 152 149 146 146 134 126 128 110 81 87 324 18 18 29 82
152 94 61 61 109 287 190 187 246 218 216 249 270 249 227 211 204 192 176 161 161 158 157 157 159 166 165 166 162 169 169 162 152 156 162 161 148 153 144 132 131 128 145 172 61 0 41 32 59
167 129 32 359 0 228 168 186 248 257 256 225 258 272 238 213 191 173 162 162 156 161 159 161 165 167 168 168 170 172 171 167 169 168 167 157 152 163 171 151 156 153 206 146 108 17 51 15 83
177 162 160 185 196 214 104 231 257 240 270 279 265 266 12 198 172 167 172 168 167 165 164 165 167 164 167 171 176 170 167 170 167 169 160 164 162 161 163 155 156 163 189 129 101 15 58 82 82
186 205 150 102 20 69 218 284 289 256 267 262 243 186 203 200 185 173 164 163 157 161 168 166 163 165 171 175 170 173 167 159 167 172 157 160 153 156 158 157 156 160 150 137 127 96 107 92 99
179 144 143 343 138 225 266 265 231 301 262 268 225 210 207 193 201 174 173 165 164 162 158 160 165 168 172 167 169 169 173 169 159 157 169 162 153 149 153 155 160 160 148 150 141 143 156 111 113
138 182 151 124 165 166 208 257 214 217 217 231 230 207 207 196 188 178 161 135 134 135 152 159 161 161 167 168 162 160 165 166 159 164 164 164 145 151 158 161 162 155 148 161 143 162 159 133 120
196 183 161 165 220 232 136 256 225 226 236 245 254 214 213 178 174 169 151 148 152 156 157 161 159 159 168 162 162 167 157 155 161 161 160 156 155 156 159 164 160 164 166 156 151 156 172 158 137